Regional Weather Roundup
Issued by NWS San Diego, CA

Home | Current Version | Previous Version | Text Only | Print | Product List | Glossary On
Versions: 1 2 3 4 5 6 7 8 9 10 11 12 13 14 15 16 17 18 19 20 21 22 23 24 25 26 27 28 29 30 31 32 33 34 35 36 37 38 39 40 41 42 43 44 45 46 47 48 49 50
000
ASUS46 KSGX 020411
RWRSGX

SAN DIEGO HOURLY WEATHER ROUNDUP
NATIONAL WEATHER SERVICE SAN DIEGO CA
900 PM PDT TUE SEP 01 2015

NOTE: "FAIR" INDICATES FEW OR NO CLOUDS BELOW 12,000 FEET WITH NO
SIGNIFICANT WEATHER AND/OR OBSTRUCTIONS TO VISIBILITY.

CAZ042-043-060-061-PZZ750-775-020500-

GREATER SAN DIEGO AREA

CITY           SKY/WX    TMP DP  RH WIND       PRES   REMARKS
LINDBERGH FLD  CLOUDY    70  61  73 SW6       29.96R
POINT LOMA       N/A     68  61  78 SW5         N/A
NATIONAL CITY    N/A     70  63  78 S2        29.95R
CHULA VISTA      N/A     70  64  82 CALM      29.88R
IMPERIAL BEACH MOCLDY    68  61  78 W6        29.96R
BROWN FIELD    MOCLDY    67  61  81 W5        29.96R
MIRAMAR MCAS   MOCLDY    72  60  66 SW5       29.95R
MONTGOMERY FLD CLOUDY    69  61  75 VRB3      29.95R

$$

NORTH SAN DIEGO COUNTY

CITY           SKY/WX    TMP DP  RH WIND       PRES   REMARKS
CAMP PENDLETON CLOUDY    69  60  73 CALM      29.94R
OCEANSIDE AP   CLOUDY    71  62  73 SW3       29.93R
OCEANSIDE HBR    N/A     70  65  83 SW5       29.96R
VISTA            N/A     69  63  81 CALM      29.92R
CARLSBAD       CLOUDY    70  62  76 S6        29.94R
DEL MAR          N/A     69  63  82 CALM      29.97R
LA JOLLA SCRIP   N/A    N/A N/A N/A SW2       29.91R
FALLBROOK        N/A     66  65  94 CALM      29.93R
ESCONDIDO        N/A     69  62  79 SW2       29.96R
SAN MARCOS       N/A     68  62  82 CALM      29.92R
POWAY            N/A     68  62  80 CALM      29.95R

$$

EAST SAN DIEGO COUNTY

CITY           SKY/WX    TMP DP  RH WIND       PRES   REMARKS
RAMONA         MOCLDY    63  58  83 W3        29.97R
SANTEE LAKES     N/A     67  62  82 CALM      29.94R
LA MESA          N/A     66  61  84 CALM      29.88R
JAMUL            N/A     65  61  88 CALM      29.94R
DESCANSO N       N/A     63  51  66 CALM      29.80R
CAMPO            N/A     59  52  77 NE5       29.97R

$$

ORANGE COUNTY AND THE LOS ANGELES BASIN

CITY           SKY/WX    TMP DP  RH WIND       PRES   REMARKS
JOHN WAYNE AP  MOCLDY    69  61  75 SW8       29.94R
LAGUNA BEACH     N/A    N/A N/A N/A S6        29.90R
LAKE FOREST FR   N/A     67  58  73 CALM      29.84R
SANTA ANA        N/A     72  63  73 CALM      29.89R
HUNTINGTON BCH   N/A     69  65  85 W3        29.96R
LOS ALAMITOS   CLOUDY    69  63  81 SW6       29.94R
FULLERTON      PTCLDY    71  63  75 VRB5      29.93R
LONG BEACH     MOCLDY    71  62  73 SW5       29.94R
L.A. AP        MOCLDY    69  62  78 SW8       29.94R
L.A. DOWNTOWN  PTCLDY    70  61  73 CALM      29.93R

$$

THE INLAND EMPIRE

CITY           SKY/WX    TMP DP  RH WIND       PRES   REMARKS
CORONA         MOCLDY    69  60  73 W9        29.93R
CHINO          MOCLDY    71  61  70 W9        29.95R
ONTARIO        MOCLDY    70  60  70 W12       29.94R
RIVERSIDE AP   MOCLDY    72  60  66 W6        29.94R
MORENO VALLEY    N/A     74  63  69 CALM      29.89R
MARCH ARB      CLOUDY    72  59  64 S3        29.96R
HORSETHIEF CYN   N/A     73  56  56 CALM      29.94R
PERRIS           N/A     69  61  74 S7        29.95R
MENIFEE          N/A     68  62  81 S5        30.00R
HEMET EAST       N/A     71  58  63 CALM      29.94R
FRENCH VALLEY  FAIR      66  59  77 S10       29.96S
TEMECULA         N/A     67  62  84 S2        29.92R

$$

SAN BERNARDINO AND RIVERSIDE COUNTY MOUNTAINS

CITY           SKY/WX    TMP DP  RH WIND       PRES   REMARKS
BIG BEAR AP    MOCLDY    59  34  38 CALM      30.22R
PINE COVE        N/A     63  43  47 CALM      29.84R

$$

SOUTHERN DESERT INCLUDING THE COACHELLA VALLEY

CITY           SKY/WX    TMP DP  RH WIND       PRES   REMARKS
PALM SPRINGS   PTCLDY    92  50  23 NW16      29.81R
THOUSAND PALMS   N/A     89  50  25 NW9       29.77R
PALM DESERT      N/A     92  54  27 CALM      30.14S
THERMAL        MOCLDY    91  63  39 N8        29.73R
BLYTHE         CLEAR     95  56  26 S12       29.78R
IMPERIAL AP    CLEAR     95  45  17 S9        29.75R
EL CENTRO NAS  PTCLDY    91  46  21 S10       29.77R
YUMA AZ        PTCLDY    92  52  25 SE10      29.79R
MEXICALI       CLEAR     86  54  32 SE6       29.78R

$$

UPPER DESERT

CITY           SKY/WX    TMP DP  RH WIND       PRES   REMARKS
VICTORVILLE AP PTCLDY    79  46  31 CALM      29.96R
HESPERIA         N/A     73  53  48 W12       29.92R
APPLE VALLEY     N/A     76  49  37 S16G24    29.98R
PALMDALE       MOCLDY    77  37  23 W17       29.94R
LANCASTER      MOCLDY    77  35  21 NW14      29.95R
EDWARDS AFB    MOCLDY    79  33  18 W16       29.89R
DAGGETT        PTCLDY   N/A N/A N/A W12       29.87R
29 PALMS N     MOCLDY    87  59  38 S9        29.95R
NEEDLES        PTCLDY    98  51  20 SW8       29.80R HX  95

$$

REGIONAL REPORTS

CITY           SKY/WX    TMP DP  RH WIND       PRES   REMARKS
SANTA BARBARA  CLOUDY    70  61  73 W5        29.93R
SANDBERG       CLOUDY    65  50  58 S10       30.07S
LAS VEGAS NV   PTCLDY    93  49  22 S10       29.83R
PHOENIX AZ     MOCLDY    95  59  30 NE7       29.85R
TIJUANA        MOCLDY    66  57  72 W6        29.97R
ENSENADA NW      N/A     70  32  24 CALM      29.93R

$$

OFFSHORE ISLANDS

CITY           SKY/WX    TMP DP  RH WIND       PRES   REMARKS
CATALINA ARPT  CLOUDY    60  59  96 W8        29.98R FOG
SAN NICOLAS IS MOCLDY   N/A N/A N/A W6        29.95R

$$

MARINE AND OFFSHORE BUOY REPORTS

STATION/POSITION SKY/WX   TEMP    WIND        PRES    SWELL
                          AIR SEA DIR/SP/G            HT/PER/DIR
                          (F)     (DEG/KT/KT) (MB)    (FT/S/D)
TANNER BANKS               67 69  310/ 12/ 14 1014.0R   7/290/11
S CLEMENTE BASIN           66 72  270/  8/ 10 1013.8R   5/210/12
SO. S. ROSA ISLA           65 66  320/ 12/ 14 1012.6R   7/11
W. S. BARBARA CH           65 69  330/ 16/ 17 1012.4R   7/240/11
M. S. BARBARA CH           67 67  260/ 14/ 16 1013.4R
S. MONICA BASIN            68 71  260/  8/ 10 1013.6R   3/200/13
S PEDRO CHANNEL               73                N/A     2/250/13
DANA POINT                    74                N/A     3/210/11
OCEANSIDE OFFSHR              74                N/A     3/200/14
TORREY PINES OTR              74                N/A     3/210/11
LA JOLLA 1                 69 75  230/  3/  5 1013.2R
MISSION BAY BUOY              75                N/A     2/210/14
SAN DIEGO BAY                 77              1014.0R
POINT LOMA SOUTH              72                N/A     3/240/14

$$




USA.gov is the U.S. government's official web portal to all federal, state and local government web resources and services.